| time (UTC) | temp F | wind direction | speed knots | gust knots | rain 1hr in | rain 24hr in | rain mn in | humidity % | barometer mb |
| 20260505093837 | 52 | 100 | 2.6 | 2.6 | 0.00 | 0.00 | 0.00 | 92 | 1008.6 |
| 20260505092832 | 52 | 108 | 1.7 | 1.7 | 0.00 | 0.00 | 0.00 | 91 | 1008.8 |
| 20260505091827 | 52 | 130 | 1.7 | 4.3 | 0.00 | 0.00 | 0.00 | 91 | 1008.6 |
| 20260505090823 | 52 | 172 | 2.6 | 2.6 | 0.00 | 0.00 | 0.00 | 91 | 1008.9 |
| 20260505085823 | 52 | 126 | 2.6 | 3.5 | 0.00 | 0.00 | 0.00 | 91 | 1008.8 |
| 20260505084819 | 51 | 140 | 2.6 | 3.5 | 0.00 | 0.00 | 0.00 | 91 | 1009.0 |
| 20260505083814 | 50 | 119 | 2.6 | 3.5 | 0.00 | 0.00 | 0.00 | 92 | 1008.7 |
| 20260505082814 | 49 | 113 | 1.7 | 1.7 | 0.00 | 0.00 | 0.00 | 93 | 1008.9 |
| 20260505081813 | 49 | 113 | 1.7 | 1.7 | 0.00 | 0.00 | 0.00 | 93 | 1009.0 |
| 20260505080812 | 48 | 110 | 2.6 | 2.6 | 0.00 | 0.00 | 0.00 | 92 | 1009.0 |
| 20260505075809 | 49 | 104 | 1.7 | 1.7 | 0.00 | 0.00 | 0.00 | 92 | 1009.1 |
| 20260505074804 | 50 | 89 | 1.7 | 1.7 | 0.00 | 0.00 | 0.00 | 90 | 1009.0 |
| 20260505073804 | 50 | 89 | 1.7 | 1.7 | 0.00 | 0.00 | 0.00 | 90 | 1009.2 |
| 20260505072759 | 50 | 87 | 1.7 | 1.7 | 0.00 | 0.00 | 0.00 | 89 | 1008.9 |
| 20260505071756 | 50 | 95 | 2.6 | 2.6 | 0.00 | 0.00 | 0.00 | 89 | 1009.0 |
| 20260505070751 | 50 | 83 | 1.7 | 1.7 | 0.00 | 0.00 | 0.00 | 88 | 1009.0 |
| 20260505065748 | 50 | 83 | 1.7 | 1.7 | 0.00 | 0.00 | 0.00 | 88 | 1009.2 |
| 20260505064749 | 50 | 83 | 1.7 | 1.7 | 0.00 | 0.00 | 0.00 | 88 | 1009.2 |
| 20260505063743 | 50 | 83 | 1.7 | 1.7 | 0.00 | 0.00 | 0.00 | 88 | 1009.1 |
| 20260505062742 | 50 | 83 | 1.7 | 1.7 | 0.00 | 0.00 | 0.00 | 88 | 1009.1 |
| 20260505061742 | 50 | 83 | 1.7 | 1.7 | 0.00 | 0.00 | 0.00 | 88 | 1009.0 |
| 20260505060737 | 50 | 85 | 1.7 | 1.7 | 0.00 | 0.00 | 0.00 | 87 | 1009.3 |
| 20260505055735 | 50 | 85 | 1.7 | 1.7 | 0.00 | 0.00 | 0.00 | 87 | 1009.5 |
| 20260505054735 | 50 | 93 | 1.7 | 1.7 | 0.00 | 0.00 | 0.00 | 86 | 1009.6 |
| 20260505053732 | 50 | 110 | 0.9 | 1.7 | 0.00 | 0.00 | 0.00 | 85 | 1009.4 |
| 20260505052731 | 50 | 110 | 0.9 | 1.7 | 0.00 | 0.00 | 0.00 | 85 | 1009.5 |
| 20260505051730 | 50 | 89 | 1.7 | 1.7 | 0.00 | 0.00 | 0.00 | 85 | 1009.5 |
| 20260505050726 | 51 | 91 | 1.7 | 1.7 | 0.00 | 0.00 | 0.00 | 84 | 1009.5 |
| 20260505041723 | 53 | 85 | 1.7 | 1.7 | 0.00 | 0.00 | 0.00 | 79 | 1010.0 |
| 20260505040718 | 53 | 85 | 1.7 | 1.7 | 0.00 | 0.00 | 0.00 | 79 | 1009.7 |
| 20260505035717 | 53 | 85 | 1.7 | 1.7 | 0.00 | 0.00 | 0.00 | 79 | 1009.9 |
| 20260505034715 | 54 | 106 | 1.7 | 1.7 | 0.00 | 0.00 | 0.00 | 78 | 1009.7 |
| 20260505033714 | 54 | 99 | 1.7 | 2.6 | 0.00 | 0.00 | 0.00 | 77 | 1009.9 |
| 20260505032710 | 54 | 141 | 1.7 | 2.6 | 0.00 | 0.00 | 0.00 | 77 | 1009.7 |
| 20260505031710 | 55 | 141 | 3.5 | 3.5 | 0.00 | 0.00 | 0.00 | 76 | 1009.8 |
| 20260505030709 | 55 | 144 | 3.5 | 3.5 | 0.00 | 0.00 | 0.00 | 75 | 1009.8 |
| 20260505025706 | 55 | 120 | 1.7 | 2.6 | 0.00 | 0.00 | 0.00 | 75 | 1009.9 |
| 20260505024703 | 55 | 175 | 1.7 | 1.7 | 0.00 | 0.00 | 0.00 | 74 | 1009.9 |
| 20260505023657 | 55 | 102 | 1.7 | 3.5 | 0.00 | 0.00 | 0.00 | 73 | 1009.7 |
| 20260505022657 | 56 | 168 | 3.5 | 6.1 | 0.00 | 0.00 | 0.00 | 72 | 1009.9 |
| 20260505021656 | 56 | 151 | 1.7 | 1.7 | 0.00 | 0.00 | 0.00 | 71 | 1009.9 |
| 20260505020655 | 56 | 153 | 1.7 | 1.7 | 0.00 | 0.00 | 0.00 | 71 | 1010.1 |
| 20260505015654 | 56 | 182 | 3.5 | 3.5 | 0.00 | 0.00 | 0.00 | 70 | 1009.8 |
| 20260505014653 | 57 | 180 | 4.3 | 5.2 | 0.00 | 0.00 | 0.00 | 69 | 1009.7 |
| 20260505013653 | 57 | 180 | 1.7 | 3.5 | 0.00 | 0.00 | 0.00 | 68 | 1009.9 |
| 20260505012649 | 57 | 195 | 2.6 | 5.2 | 0.00 | 0.00 | 0.00 | 67 | 1009.6 |
| 20260505011647 | 58 | 228 | 4.3 | 4.3 | 0.00 | 0.00 | 0.00 | 66 | 1009.4 |
| 20260505010644 | 58 | 124 | 1.7 | 5.2 | 0.00 | 0.00 | 0.00 | 65 | 1009.3 |
| 20260505005643 | 58 | 198 | 2.6 | 6.1 | 0.00 | 0.00 | 0.00 | 64 | 1009.3 |
| 20260505004638 | 59 | 146 | 2.6 | 6.1 | 0.00 | 0.00 | 0.00 | 63 | 1009.0 |
| 20260505003638 | 59 | 153 | 3.5 | 4.3 | 0.00 | 0.00 | 0.00 | 62 | 1009.0 |
| 20260505002637 | 59 | 105 | 2.6 | 6.1 | 0.00 | 0.00 | 0.00 | 61 | 1008.7 |
| 20260505001632 | 59 | 120 | 3.5 | 5.2 | 0.00 | 0.00 | 0.00 | 61 | 1008.5 |
| 20260505000632 | 60 | 230 | 7.0 | 7.8 | 0.00 | 0.00 | 0.00 | 60 | 1008.3 |
| 20260504235632 | 60 | 184 | 2.6 | 5.2 | 0.00 | 0.00 | 0.00 | 59 | 1008.1 |
| 20260504234631 | 61 | 204 | 5.2 | 6.1 | 0.00 | 0.00 | 0.00 | 57 | 1008.2 |
| 20260504233630 | 61 | 188 | 3.5 | 7.8 | 0.00 | 0.00 | 0.00 | 56 | 1008.0 |
| 20260504232631 | 62 | 198 | 4.3 | 7.0 | 0.00 | 0.00 | 0.00 | 55 | 1007.7 |
| 20260504231630 | 63 | 197 | 5.2 | 12.2 | 0.00 | 0.00 | 0.00 | 54 | 1007.6 |
| 20260504230628 | 64 | 242 | 5.2 | 6.1 | 0.00 | 0.00 | 0.00 | 53 | 1007.6 |
| 20260504225625 | 65 | 158 | 1.7 | 8.7 | 0.00 | 0.00 | 0.00 | 50 | 1007.5 |
| 20260504224623 | 66 | 223 | 5.2 | 6.1 | 0.00 | 0.00 | 0.00 | 49 | 1007.4 |
| 20260504223623 | 66 | 184 | 3.5 | 10.4 | 0.00 | 0.00 | 0.00 | 48 | 1007.6 |
| 20260504222622 | 66 | 204 | 6.1 | 11.3 | 0.00 | 0.00 | 0.00 | 46 | 1007.5 |
| 20260504221622 | 67 | 193 | 3.5 | 9.6 | 0.00 | 0.00 | 0.00 | 45 | 1007.5 |
| 20260504220621 | 68 | 190 | 5.2 | 8.7 | 0.00 | 0.00 | 0.00 | 44 | 1007.5 |
| 20260504215620 | 69 | 211 | 6.1 | 11.3 | 0.00 | 0.00 | 0.00 | 43 | 1007.4 |
| 20260504214620 | 69 | 141 | 4.3 | 7.8 | 0.00 | 0.00 | 0.00 | 42 | 1007.6 |
| 20260504213619 | 69 | 132 | 1.7 | 11.3 | 0.00 | 0.00 | 0.00 | 42 | 1007.4 |
| 20260504212618 | 71 | 202 | 6.1 | 7.0 | 0.00 | 0.00 | 0.00 | 41 | 1007.4 |
| 20260504211612 | 69 | 145 | 7.8 | 9.6 | 0.00 | 0.00 | 0.00 | 41 | 1007.4 |
| 20260504210612 | 70 | 125 | 7.0 | 8.7 | 0.00 | 0.00 | 0.00 | 40 | 1007.0 |
| 20260504205612 | 70 | 177 | 4.3 | 9.6 | 0.00 | 0.00 | 0.00 | 40 | 1007.2 |
| 20260504204608 | 71 | 141 | 2.6 | 9.6 | 0.00 | 0.00 | 0.00 | 40 | 1007.1 |
| 20260504203604 | 69 | 213 | 7.0 | 14.8 | 0.00 | 0.00 | 0.00 | 40 | 1007.0 |
| 20260504202602 | 71 | 221 | 5.2 | 9.6 | 0.00 | 0.00 | 0.00 | 39 | 1007.1 |
| 20260504201602 | 72 | 151 | 1.7 | 5.2 | 0.00 | 0.00 | 0.00 | 33 | 1007.2 |
| 20260504200602 | 71 | 144 | 1.7 | 13.0 | 0.00 | 0.00 | 0.00 | 37 | 1007.2 |
| 20260504195600 | 72 | 202 | 8.7 | 13.9 | 0.00 | 0.00 | 0.00 | 31 | 1007.3 |
| 20260504194559 | 72 | 219 | 7.8 | 12.2 | 0.00 | 0.00 | 0.00 | 31 | 1007.4 |
| 20260504193557 | 73 | 214 | 5.2 | 8.7 | 0.00 | 0.00 | 0.00 | 31 | 1007.2 |
| 20260504192554 | 74 | 206 | 5.2 | 5.2 | 0.00 | 0.00 | 0.00 | 30 | 1007.3 |
| 20260504191550 | 73 | 206 | 9.6 | 10.4 | 0.00 | 0.00 | 0.00 | 30 | 1007.4 |
| 20260504190548 | 72 | 202 | 7.8 | 8.7 | 0.00 | 0.00 | 0.00 | 31 | 1007.5 |
| 20260504185547 | 73 | 203 | 7.8 | 9.6 | 0.00 | 0.00 | 0.00 | 31 | 1007.4 |
| 20260504184545 | 71 | 222 | 7.0 | 18.2 | 0.00 | 0.00 | 0.00 | 32 | 1007.5 |
| 20260504183543 | 71 | 202 | 7.0 | 13.0 | 0.00 | 0.00 | 0.00 | 31 | 1007.8 |
| 20260504182538 | 71 | 205 | 7.0 | 12.2 | 0.00 | 0.00 | 0.00 | 32 | 1007.7 |
| 20260504181538 | 72 | 207 | 4.3 | 8.7 | 0.00 | 0.00 | 0.00 | 32 | 1007.9 |
| 20260504180535 | 70 | 193 | 5.2 | 10.4 | 0.00 | 0.00 | 0.00 | 33 | 1007.9 |
| 20260504175530 | 70 | 236 | 8.7 | 12.2 | 0.00 | 0.00 | 0.00 | 32 | 1008.3 |
| 20260504174525 | 70 | 213 | 7.0 | 16.5 | 0.00 | 0.00 | 0.00 | 31 | 1008.2 |
| 20260504173524 | 69 | 221 | 13.0 | 13.0 | 0.00 | 0.00 | 0.00 | 32 | 1008.3 |
| 20260504172524 | 70 | 216 | 7.0 | 13.9 | 0.00 | 0.00 | 0.00 | 32 | 1008.2 |
| 20260504171523 | 69 | 224 | 5.2 | 7.8 | 0.00 | 0.00 | 0.00 | 32 | 1008.4 |
| 20260504170521 | 69 | 238 | 5.2 | 11.3 | 0.00 | 0.00 | 0.00 | 33 | 1008.7 |
| 20260504150500 | 65 | 199 | 6.1 | 18.2 | 0.00 | 0.00 | 0.00 | 34 | 1009.8 |
| 20260504140452 | 63 | 196 | 4.3 | 4.3 | 0.00 | 0.00 | 0.00 | 38 | 1010.3 |
| 20260504130435 | 58 | 192 | 3.5 | 7.8 | 0.00 | 0.00 | 0.00 | 44 | 1011.1 |
| 20260504110409 | 44 | 102 | 1.7 | 3.5 | 0.00 | 0.00 | 0.00 | 79 | 1011.2 |
| 20260504100354 | 41 | 81 | 2.6 | 2.6 | 0.00 | 0.00 | 0.00 | 75 | 1010.8 |